Location: Unspecified
(0.0000°N, 0.0000°E)
Time: 08:50:27
(UTC+00:00)

Courier 1B Rocket - Pass Details

Date: 27 May 2026
Orbit: 920 x 1201 km, 28.2° (Epoch: 9 June)

Event Time Altitude Azimuth Distance (km) Brightness Sun altitude
Rises 12:30:21 0° 277° (W) 3,582 8.1 67.2°
Reaches altitude 10° 12:33:15 10° 266° (W) 2,666 7.5 66.9°
Maximum altitude 12:38:45 30° 207° (SSW) 1,700 6.5 66.4°
Drops below altitude 10° 12:44:35 10° 148° (SSE) 2,823 7.3 65.7°
Sets 12:47:46 0° 137° (SE) 3,827 7.9 65.3°
